Regional Weather Roundup
Issued by NWS Wakefield, VA

Home | Current Version | Previous Version | Graphics & Text | Print | Product List | Glossary On
Versions: 1 2 3 4 5 6 7 8 9 10 11 12 13 14 15 16 17 18 19 20 21 22 23 24 25 26 27 28 29 30 31 32 33 34 35 36 37 38 39 40 41 42 43 44 45 46 47 48 49 50
011
ASUS41 KAKQ 192016
RWRAKQ

REGIONAL WEATHER ROUNDUP
NATIONAL WEATHER SERVICE WAKEFIELD VA
400 PM EDT SAT AUG 19 2017

Note: "fair" indicates few or no clouds below 12,000 feet with no
significant weather and/or obstructions to visibility. * = Denotes
station may not report precipitation (e.g., rain,snow,etc.),
thunder or fog.

VAZ042-051-052>054-056-192100-
NORTHERN VIRGINIA

CITY           SKY/WX    TMP DP  RH WIND       PRES   REMARKS
WASH NATIONAL  MOSUNNY   89  65  44 CALM      29.89F
DULLES         MOSUNNY   87  66  49 VRB3      29.90F
FORT BELVOIR   SUNNY     89  64  44 CALM      29.89F
QUANTICO       SUNNY     87  70  56 S7        29.90F
FREDERICKSBRG* MOSUNNY   90  68  49 S5        29.89F
STAFFORD*      SUNNY     88  66  47 SW3       29.94F
WARRENTON      SUNNY     90  59  34 NW3       29.90F
CULPEPER*      SUNNY     90  66  45 SW5       29.91F
MANASSAS*      SUNNY     88  68  51 SW5       29.90F
LEESBURG*      MOSUNNY   90  70  51 CALM      29.91F HX  95
WINCHESTER     MOSUNNY   84  63  48 CALM      29.91F
FRONT ROYAL*   CLEAR     86  63  45 W5        29.91F
LURAY*         CLEAR     88  61  40 NW5       29.92F
$$

VAZ048-049-060>072-079>083-192100-
CENTRAL AND SOUTH CENTRAL VIRGINIA

CITY           SKY/WX    TMP DP  RH WIND       PRES   REMARKS
RICHMOND       MOSUNNY   88  69  53 SE7       29.90F
CHESTERFIELD*  FAIR      87  67  51 CALM      29.91F
PETERSBURG*    MOSUNNY   87  65  47 SE3       29.91F
HANOVER        MOSUNNY   88  66  48 S6        29.92F
TAPPAHANNOCK*  MOSUNNY   88  58  36 S3        29.92F
QUINTON*       FAIR     N/A N/A N/A CALM      29.90F
CHARLOTTSVILLE SUNNY     91  60  35 VRB5      29.92F
GORDONSVILLE*  CLEAR     88  64  45 CALM      29.91F
ORANGE*        SUNNY     88  63  42 CALM      29.91F
LOUISA*        SUNNY     88  63  42 CALM      29.91F
BUMPASS*       FAIR      87  69  54 W6        29.91F
FARMVILLE*     SUNNY     90  53  27 CALM      29.91F
CREWE*         FAIR      87  61  42 CALM      29.92S
FORT PICKETT*  FAIR     N/A N/A N/A NW3       29.92F
CHASE CITY*    FAIR      88  64  44 W3        29.92F
CLARKSVILLE*   FAIR      88  66  48 W3        29.92S
SOUTH HILL*    MOSUNNY   88  71  58 SW6       29.97F
LAWRENCEVILLE* MOCLDY    86  71  60 CALM      29.92S
EMPORIA*       MOSUNNY   86  70  58 W3        29.93R
$$

VAZ088>098-192100-
SOUTHEAST VIRGINIA

CITY           SKY/WX    TMP DP  RH WIND       PRES   REMARKS
NORFOLK        SUNNY     88  72  58 N8        29.90F
VIRGINIA BEACH MOSUNNY   86  68  54 E8        29.90F
NORFOLK NAVAL  MOSUNNY   89  67  47 NE9       29.92F
WEST POINT*    MOSUNNY   88  66  48 NE3       29.91F
SALUDA*        FAIR      85  73  65 E6        29.90F
NEWPORT NEWS   MOSUNNY   86  69  56 E8        29.91F
LANGLEY AFB    SUNNY     86  69  55 E9        29.91F
FORT EUSTIS    SUNNY     93  69  45 W3        29.89F HX  99
WILLIAMSBURG*  SUNNY     91  73  55 CALM      29.91F HX 100
HR EXEC AP*    FAIR      90  72  55 NE7         N/A  HX  96
FRANKLIN*      PTSUNNY   86  72  62 CALM      29.91S
US460-WAKEFLD  MOSUNNY   88  73  61 NE6       29.91F HX  95
$$

VAZ020-022-025-037-045-192100-
WEST CENTRAL AND SOUTHWEST VIRGINIA

CITY           SKY/WX    TMP DP  RH WIND       PRES   REMARKS
STAUNTON*      SUNNY     84  60  43 CALM      29.97F
WAYNESBORO*    CLEAR     86  63  45 W5        29.97F
HOT SPRINGS VA SUNNY     77  54  44 CALM      30.12F
LYNCHBURG      SUNNY     89  61  38 VRB3      29.94F
DANVILLE       SUNNY     89  66  46 NE3       29.94F
SOUTH BOSTON*  FAIR      88  64  43 SW3       29.93F
MARTINSVILLE   SUNNY     87  64  46 CALM      29.98F
ROANOKE        MOSUNNY   90  57  32 CALM      29.97F
BLACKSBURG     SUNNY     83  61  48 CALM      30.06F
DUBLIN*        SUNNY     84  61  45 NW3       30.04F
MARION*        SUNNY     81  56  42 SW5       30.09F
HILLSVILLE*    MOSUNNY   79  57  46 CALM      30.06F
RICHLANDS*     FAIR      79  57  47 W5        30.08F
WISE*          SUNNY     81  55  41 W3        30.09F
ABINGDON*      SUNNY     83  66  57 NW3       30.05F
$$

MDZ021>025-VAZ099-100-192100-
SOUTHERN MARYLAND AND THE DELMARVA PENINSULA

CITY           SKY/WX    TMP DP  RH WIND       PRES   REMARKS
PATUXENT RIVER MOSUNNY   84  70  62 SE6       29.90F
BAY BRIDGE APT SUNNY     86  68  54 W3        29.89F
LEONARDTOWN    MOSUNNY   86  68  54 W5        29.91F
DOVER          MOSUNNY   86  64  48 W12       29.89F
GEORGETOWN     MOSUNNY   88  67  49 SW6       29.89F
EASTON         NOT AVBL
CAMBRIDGE      SUNNY     86  68  54 N9        29.90S
SALISBURY      SUNNY     87  69  54 W5        29.89F
OCEAN CITY     MOSUNNY   84  73  69 SE6       29.89F
WALLOPS ISLAND PTSUNNY   87  69  54 W6        29.90S
ACCOMACK*      MOSUNNY   85  72  64 NW8       29.91S
$$

NCZ012>017-030>032-192100-
NORTH CENTRAL AND EASTERN NORTH CAROLINA

CITY           SKY/WX    TMP DP  RH WIND       PRES   REMARKS
ROANOKE RAPIDS MOCLDY    90  70  51 W7        29.92R HX  95
RALEIGH        MOSUNNY   92  67  43 VRB3      29.93F HX  95
ELIZABETH CITY PTSUNNY   86  77  74 E12       29.90S HX  97
AHOSKIE*         N/A     87  73  61 CALM      29.91S
EDENTON*       MOSUNNY   92  74  55 CALM      29.91S HX 102
CURRITUCK*     MOSUNNY   87  72  61 E7        29.92S
KILL DEVIL HLS MOSUNNY   83  75  75 CALM      29.90F
MANTEO         MOSUNNY   85  74  69 N3        29.91S
CAPE HATTERAS  CLOUDY    81  76  84 W9G21     29.92F
TARBORO*       NOT AVBL
GOLDSBORO      MOSUNNY   89  69  51 NE3       29.92S
WASHINGTON     PTSUNNY   87  74  66 CALM      29.91R
GREENVILLE     CLOUDY    90  72  55 N3        29.94R HX  96
NEW BERN       TSTM      75  75 100 S22       29.98R VSB 1/4
WILMINGTON     MOSUNNY   81  75  82 NE5       29.94S
$$

VAZ048-192100-
ELSEWHERE

CITY           SKY/WX    TMP DP  RH WIND       PRES   REMARKS
HARRISBURG PA  MOSUNNY   85  65  51 W8G16     29.87F
BALTIMORE      MOSUNNY   87  67  51 NW5       29.88F
ANNAPOLIS      SUNNY     86  73  65 SE7       29.88F
ANDREWS AFB    MOSUNNY   87  66  50 NW6       29.89F
PHILADELPHIA   MOSUNNY   87  62  43 W8        29.86F
HENDERSON NC   SUNNY     86  64  47 NW6       29.93F
GREENSBORO     MOSUNNY   88  67  49 W6        29.95F
ROCKY MOUNT    CLOUDY    90  68  48 NW7       29.92F
$$

VAZ100-192100-
MARINE

STATION/POSITION TIME  TEMP    WIND        PRES    WAVE   SWELL
                       AIR SEA DIR/SP/G            HT/PER HT/PER
                 (UTC) (F)     (DEG/KT/KT) (MB)    (FT/S) (FT/S)
BRANDYWINE LGT   1942   82     350/  3/  3 1012.4F
CAPE MAY NJ      1948   82 80  280/  4/  5 1011.5F
LEWES DE         1942   82 78   30/  4/  5 1011.8F
15NM E FENWICK I 1950   80 79  330/  6/  6 1012.6F   2/ 6   2/ 6
OCEAN-CITY-INLET 1942   82 78  100/  4/  5 1012.7F
WACHAPREAGUE VA  1942   88 86  330/  3/  7 1012.7F
THOMAS POINT MD  2000   82 81  170/  8/  9   N/A
GOOSES REEF MD   2000   83 83  140/  6/  8 1012.6    1
COVE POINT MD    1942   83     110/  2/  3 1013.2F
SOLOMONS ISLAND  1942   83 81  120/  4/  5   N/A
BISHOPS HEAD MD  1942   84 84  280/  9/ 10 1012.9F
PINEY POINT MD   1948          330/  6/  7   N/A
POTOMAC MD       2000   83 84   CALM  /  4 1012.1    0
CAMBRIDGE MD     1942   87 84              1013.5F
LEWISETTA VA     1942   84 83   60/  4/  5 1012.6F
RAPPAHANNOCK LGT 1942          330/  6/  7 1013.5F
STINGRAY PT      2000   84 83   70/  6/  8 1013.3    1
YORK RVR RNG VA  1942   83      80/ 10/ 10 1013.2F
YORKTOWN VA      1942   85 83  110/  5/  6 1012.5F
JAMESTOWN VA     2000      88     CALM       N/A     0
DOMINION TERM VA 1942   85     110/  4/  9 1012.8F
KIPTOPEKE VA     1942      83  330/ 10/ 11   N/A
CHES BAY BRIDGE  1942   81 80   20/  7/  8 1012.7F
CAPE HENRY VA    1942   81     340/  7/  9   N/A
WILLOUBY STN VA  1942   83      50/  8/  9 1013.0F
S CRANEY ISL VA  1942   86      20/  6/  8 1012.5F
CAPE HENRY BUOY  2000      81                N/A     2/ 8
1ST LANDING BUOY 2000   82 81              1012.6    1/ 4
64NM E OF VA BCH 1950   79 79  280/  4/  4 1013.1F   3/ 6   3/ 6
DUCK PIER NC     1942   82 76   40/  6/  7 1012.5F
44100 DUCK FRF   1905      85                N/A     2/ 8
44056 DUCK FRF   2000      82                N/A     2/ 8
OREGON INLET NC  1942   83 85   90/  5/  7 1012.9F
HATTERAS NC      1942   80 83  240/  8/ 16 1012.8F
DIAMOND SHLS NC  1950   82 84  240/ 14/ 16 1013.3F   4/ 6   2/ 7
CAPE LOOKOUT NC  2000   85     230/ 10/ 15 1013.7R
$$




USA.gov is the U.S. government's official web portal to all federal, state and local government web resources and services.